Regional Weather Roundup
Issued by NWS San Diego, CA

Home | Current Version | Previous Version | Text Only | Print | Product List | Glossary On
Versions: 1 2 3 4 5 6 7 8 9 10 11 12 13 14 15 16 17 18 19 20 21 22 23 24 25 26 27
000
ASUS46 KSGX 230611
RWRSGX

SAN DIEGO HOURLY WEATHER ROUNDUP
NATIONAL WEATHER SERVICE SAN DIEGO CA
1000 PM PST MON JAN 22 2018

NOTE: "FAIR" INDICATES FEW OR NO CLOUDS BELOW 12,000 FEET WITH NO
SIGNIFICANT WEATHER AND/OR OBSTRUCTIONS TO VISIBILITY.

CAZ042-043-060-061-PZZ750-775-230700-

GREATER SAN DIEGO AREA

CITY           SKY/WX    TMP DP  RH WIND       PRES   REMARKS
SAN DIEGO AP   CLEAR     54  40  59 NE3       30.19R
NATIONAL CITY    N/A     52  38  59 CALM      30.20R
CHULA VISTA      N/A     49  38  66 E2        30.10R
IMPERIAL BEACH CLEAR     51  37  58 NE3       30.18R
BROWN FIELD    CLEAR     50  36  58 NE5       30.17R
MIRAMAR MCAS   CLEAR     46  35  65 NE3       30.16S
MONTGOMERY FLD CLEAR     51  33  50 CALM      30.17S
GILLESPIE FLD  FAIR      46  34  61 CALM      30.17S

$$

NORTH SAN DIEGO COUNTY

CITY           SKY/WX    TMP DP  RH WIND       PRES   REMARKS
CAMP PENDLETON CLEAR     41  32  70 N5        30.18S
OCEANSIDE AP   CLEAR     42  33  70 CALM      30.17R
OCEANSIDE HBR    N/A     52  32  47 CALM      30.19F
VISTA            N/A     46  33  61 CALM      30.16R
CARLSBAD       CLEAR     50  32  50 N3        30.16R
DEL MAR          N/A     53  48  82 CALM      30.19S
LA JOLLA SCRIP   N/A     56  51  82 NW2       30.17S
FALLBROOK        N/A     52  30  42 CALM      30.19R
ESCONDIDO        N/A     48  31  51 CALM      30.19R
SAN MARCOS       N/A     53  31  44 CALM      30.20S
POWAY            N/A     43  34  70 CALM      30.18S

$$

EAST SAN DIEGO COUNTY

CITY           SKY/WX    TMP DP  RH WIND       PRES   REMARKS
RAMONA         CLEAR     45  23  42 NE3       30.17S
SANTEE LAKES     N/A     44  35  70 CALM      30.17S
LA MESA          N/A     53  34  48 CALM      30.11S
JAMUL            N/A     44  33  64 CALM      30.18S
MT. LAGUNA OBS   N/A     37  12  35 NE13      30.22R WCI  28
CAMPO            N/A     40  16  37 VRB5      30.13S

$$

ORANGE COUNTY AND THE LOS ANGELES BASIN

CITY           SKY/WX    TMP DP  RH WIND       PRES   REMARKS
JOHN WAYNE AP  CLEAR     53  42  66 SE3       30.16F
LAGUNA BEACH     N/A     46  38  73 CALM      30.12S
HUNTINGTON BCH   N/A     46  42  87 CALM      30.17F
LOS ALAMITOS   FAIR      49  36  60 CALM      30.16F
FULLERTON      CLEAR     52  35  52 E3        30.16F
LONG BEACH     CLEAR     54  39  57 CALM      30.16F
L.A. AP        CLEAR     56  41  57 E5        30.17S
L.A. DOWNTOWN  CLEAR     53  37  54 CALM      30.16S

$$

THE INLAND EMPIRE

CITY           SKY/WX    TMP DP  RH WIND       PRES   REMARKS
CORONA         CLEAR     40  27  59 CALM      30.18
CHINO          CLEAR     50  30  46 CALM      30.19S
ONTARIO        CLEAR     52  26  36 NE5       30.17S
SAN BERNARDINO FAIR      49  28  43 SE3       30.19S
RIVERSIDE AP   CLEAR     50  24  36 VRB5      30.18S
MORENO VALLEY    N/A     48  32  52 CALM      28.29S
MARCH ARB      CLEAR     42  23  48 W3        30.18S
HORSETHIEF CYN   N/A     50  17  26 W3        30.21S
PERRIS           N/A     52  29  40 CALM      30.14S
HEMET EAST       N/A     49  12  22 CALM      30.25S
FRENCH VALLEY  FAIR      45  27  49 NE6       30.18S
TEMECULA         N/A     48  31  51 CALM      30.23R

$$

SAN BERNARDINO AND RIVERSIDE COUNTY MOUNTAINS

CITY           SKY/WX    TMP DP  RH WIND       PRES   REMARKS
BIG BEAR AP    CLEAR     23  16  74 CALM      30.25F

$$

SOUTHERN DESERT INCLUDING THE COACHELLA VALLEY

CITY           SKY/WX    TMP DP  RH WIND       PRES   REMARKS
PALM SPRINGS   CLEAR     56  22  26 VRB5      30.21F
THOUSAND PALMS   N/A     48  27  44 W2        30.18F
PALM DESERT      N/A     50  30  46 CALM        N/A
THERMAL        CLEAR     42  30  62 S3        30.19R
BLYTHE         CLEAR     50  15  24 CALM      30.19R
IMPERIAL AP    CLEAR     47  18  31 W5        30.18R
EL CENTRO NAS  CLEAR     46   9  22 W10       30.19S
YUMA AZ        CLEAR     51  23  33 NW6       30.17S
MEXICALI       CLEAR     46  18  31 NW6       30.18F

$$

UPPER DESERT

CITY           SKY/WX    TMP DP  RH WIND       PRES   REMARKS
VICTORVILLE AP CLEAR     34  12  40 CALM      30.25F
HESPERIA         N/A     39  17  41 SW3       30.45S
APPLE VALLEY     N/A     30  17  58 CALM      30.36S
PALMDALE       CLEAR     37  23  56 S5        30.25F WCI  33
LANCASTER      CLEAR     39  23  52 CALM      30.25S
EDWARDS AFB    CLEAR     37  17  45 CALM      30.24R
DAGGETT        CLEAR     39  18  42 CALM      30.25F
29 PALMS N     CLEAR     45  14  28 N6        30.31R
NEEDLES        CLEAR     51  20  29 NW5       30.22R

$$

REGIONAL REPORTS

CITY           SKY/WX    TMP DP  RH WIND       PRES   REMARKS
SANTA BARBARA  CLEAR     57  40  52 W7        30.17R
SANDBERG       CLEAR     42  34  73 N9        30.25S
LAS VEGAS NV   MOCLDY    46  27  47 CALM      30.25S
PHOENIX AZ     CLEAR     50  20  30 CALM      30.14S
TIJUANA        CLEAR     52  39  62 CALM      30.20R
ENSENADA NW      N/A     58  32  37 CALM      30.06F

$$

OFFSHORE ISLANDS

CITY           SKY/WX    TMP DP  RH WIND       PRES   REMARKS
CATALINA ARPT    N/A     57  30  35 NW10      30.19S
SAN NICOLAS IS CLEAR     56  32  40 NW16      30.19S

$$

MARINE AND OFFSHORE BUOY REPORTS

STATION/POSITION SKY/WX   TEMP    WIND        PRES    VSBY  SWELL
                          AIR SEA DIR/SP/G                  HT/PER/DIR
                          (F)     (DEG/KT/KT) (MB)    (MI)  (FT/S/D)
TANNER BANKS               59 59              1021.7S
S CLEMENTE BASIN           61 61  340/ 12/ 14 1021.6R         8/300/15
SAN NICOLAS IS.               58                N/A          10/300/13
SO. S. ROSA ISLA           56 57  310/ 25/ 29 1021.8F        10/290/15
W. S. BARBARA CH           56 56  320/ 19/ 23 1023.0
M. S. BARBARA CH           58 58  280/ 14/ 17   N/A
S. MONICA BASIN               60  310/  6/  8 1021.2
S PEDRO CHANNEL               60                N/A           3/280/15
CMP PENDLETON NS              59                N/A           2/250/13
OCEANSIDE OFFSHR              60                N/A           2/270/13
TORREY PINES OTR              61                N/A           3/270/17
SAN DIEGO BAY                 64              1022.3R
POINT LOMA SOUTH              61                N/A           3/280/15

$$





USA.gov is the U.S. government's official web portal to all federal, state and local government web resources and services.